Location: Newark
(45.9456°N, 15.4064°E)
Time: 23:05:46
(UTC+00:00)

N. Korean satellite - Visible Passes

Search period start: 27 January 2021 00:00
Search period end: 06 February 2021 00:00
Orbit: 452 x 502 km, 97.2° (Epoch: 27 January)

Date Brightness Start Highest point End Pass type
(mag) Time Alt. Az. Time Alt. Az. Time Alt. Az.
27 Jan 8.6 03:52:37 10° NE 03:55:35 26° E 03:58:30 10° SSE visible
27 Jan 7.8 05:26:10 10° NNW 05:28:45 20° WNW 05:31:19 10° WSW visible
28 Jan 9.7 03:27:06 10° ENE 03:28:47 13° E 03:30:27 10° ESE visible
28 Jan 6.8 04:59:04 10° N 05:02:19 40° WNW 05:05:32 10° SW visible
29 Jan 6.3 04:32:19 10° NNE 04:35:46 89° E 04:39:10 10° SSW visible
29 Jan 10.0 16:44:27 10° WSW 16:46:15 13° W 16:48:02 10° WNW visible
30 Jan 7.8 04:05:51 10° NNE 04:09:07 38° E 04:12:19 10° SSE visible
30 Jan 8.2 05:40:11 10° NNW 05:42:07 14° WNW 05:44:02 10° W visible
31 Jan 9.2 03:39:52 10° NE 03:42:21 19° E 03:44:49 10° SE visible
31 Jan 7.3 05:12:44 10° N 05:15:43 27° WNW 05:18:38 10° SW visible
01 Feb 6.4 04:45:48 10° N 04:49:12 59° WNW 04:52:33 10° SSW visible
02 Feb 7.0 04:19:11 10° NNE 04:22:35 59° E 04:25:56 10° S visible
03 Feb 8.6 03:52:53 10° NE 03:55:50 26° E 03:58:47 10° SSE visible
03 Feb 7.8 05:26:29 10° NNW 05:29:01 20° WNW 05:31:32 10° WSW visible
04 Feb 9.7 03:27:19 10° ENE 03:29:01 13° E 03:30:42 10° ESE visible
04 Feb 6.8 04:59:19 10° N 05:02:33 39° WNW 05:05:44 10° SW visible
05 Feb 6.3 04:32:31 10° NNE 04:35:57 89° W 04:39:21 10° SSW visible
05 Feb 10.0 16:44:51 10° WSW 16:46:28 13° W 16:48:05 10° WNW visible
